{"data":{"norad_id":52368,"intl_designator":"2022-045AP","name":"STARLINK-3834","alt_names":[],"object_type":"PAYLOAD","status":"ACTIVE","operator":null,"country":"US","launch_date":"2022-04-29","launch_site_code":"AFETR","launch_vehicle":null,"mission":null,"orbit_class":"UNKNOWN","rcs_meters":null,"size_class":null,"mass_kg":null,"dimensions":null,"purposes":["comms"],"wikipedia_slug":null,"has_3d_model":false,"image_url":null,"decayed_at":null,"tle_current":{"epoch":"2026-05-25T03:19:04.914048Z","epoch_age_seconds":63107,"freshness":"FRESH","line1":"1 52368U 22045AP  26145.13825132 -.00000098  00000+0  11918-4 0  9991","line2":"2 52368  53.2148 205.9312 0001241  88.0365 272.0769 15.08834640227451","mean_motion":15.0883464,"eccentricity":0.0001241,"inclination_deg":53.2148,"raan_deg":205.9312,"arg_perigee_deg":88.0365,"mean_anomaly_deg":272.0769,"bstar":1.1918e-5,"rev_number":22745,"period_min":95.437893711136,"perigee_km":538.90126139885,"apogee_km":540.61828337776,"semimajor_km":6917.8967723883,"source":"CELESTRAK","updated_at":"2026-05-25T13:38:17.120285Z"}}}